This is the latest recevied weather packets stored in our database for station/object W4MLN-3. If no packets are shown the sender has not sent any weather packets the latest 10 day(s).
| Time | Temp. | Humidity | Pressure | Rain* | Wind** | Luminosity | Snow |
|---|---|---|---|---|---|---|---|
| 1777663204 | 15° C | 49% | 1011.9 hPa | 0 mm | - | - | - |
| 1777662924 | 15° C | 50% | 1012 hPa | 0 mm | - | - | - |
| 1777662624 | 15° C | 50% | 1012 hPa | 0 mm | - | - | - |
| 1777662304 | 15° C | 50% | 1012 hPa | 0 mm | - | - | - |
| 1777662003 | 14.44° C | 51% | 1012.2 hPa | 0 mm | - | - | - |
| 1777661703 | 14.44° C | 52% | 1012.3 hPa | 0 mm | - | - | - |
| 1777661403 | 14.44° C | 52% | 1012.3 hPa | 0 mm | - | - | - |
| 1777661103 | 14.44° C | 51% | 1012.4 hPa | 0 mm | - | - | - |
| 1777660803 | 14.44° C | 51% | 1012.4 hPa | 0 mm | - | - | - |
| 1777660524 | 14.44° C | 50% | 1012.5 hPa | 0 mm | - | - | - |
| 1777660203 | 14.44° C | 50% | 1012.5 hPa | 0 mm | - | - | - |
| 1777659903 | 14.44° C | 49% | 1012.6 hPa | 0 mm | - | - | - |
| 1777659603 | 15° C | 49% | 1012.4 hPa | 0 mm | - | - | - |
| 1777659303 | 15° C | 47% | 1012.5 hPa | 0 mm | - | - | - |
| 1777659003 | 15.56° C | 48% | 1012.5 hPa | 0 mm | - | - | - |
| 1777658703 | 15.56° C | 46% | 1012.5 hPa | 0 mm | - | - | - |
| 1777658424 | 15.56° C | 47% | 1012.6 hPa | 0 mm | - | - | - |
| 1777658167 | 15.56° C | 50% | 1012.6 hPa | 0 mm | - | - | - |
| 1777657803 | 16.11° C | 46% | 1012.6 hPa | 0 mm | - | - | - |
| 1777657503 | 15.56° C | 49% | 1012.5 hPa | 0 mm | - | - | - |
| 1777657203 | 15.56° C | 46% | 1012.5 hPa | 0 mm | - | - | - |
| 1777656903 | 15.56° C | 47% | 1012.6 hPa | 0 mm | - | - | - |
| 1777656603 | 15.56° C | 47% | 1012.6 hPa | 0 mm | - | - | - |
| 1777656324 | 15° C | 49% | 1012.8 hPa | 0 mm | - | - | - |
| 1777656024 | 15° C | 47% | 1012.8 hPa | 0 mm | - | - | - |
* Rain latest hour (hover to see other rain measurements)
** Current wind speed in m/s (hover to see current wind gust speed)